{"data":{"norad_id":64481,"intl_designator":"2025-133K","name":"STARLINK-34526","alt_names":[],"object_type":"PAYLOAD","status":"ACTIVE","operator":null,"country":"US","launch_date":"2025-06-23","launch_site_code":"AFETR","launch_vehicle":null,"mission":null,"orbit_class":"UNKNOWN","rcs_meters":null,"size_class":null,"mass_kg":null,"dimensions":null,"purposes":["comms"],"wikipedia_slug":null,"has_3d_model":false,"image_url":null,"decayed_at":null,"tle_current":{"epoch":"2026-05-25T02:53:52.188288Z","epoch_age_seconds":60726,"freshness":"FRESH","line1":"1 64481U 25133K   26145.12074292  .00018527  00000+0  63583-3 0  9992","line2":"2 64481  53.1606 121.5464 0001382  78.7845 281.3311 15.30214142 52786","mean_motion":15.30214142,"eccentricity":0.0001382,"inclination_deg":53.1606,"raan_deg":121.5464,"arg_perigee_deg":78.7845,"mean_anomaly_deg":281.3311,"bstar":0.00063583,"rev_number":5278,"period_min":94.104475999543,"perigee_km":474.22571686116,"apogee_km":476.11997170212,"semimajor_km":6853.3098442816,"source":"CELESTRAK","updated_at":"2026-05-25T13:38:20.458372Z"}}}